| time (UTC) | temp C | wind direction | speed KPH | gust KPH | rain 1hr cm | rain 24hr cm | rain mn cm | humidity % | barometer mb |
| 20260510204207 | 30 | 302 | 0.0 | 22.5 | 0.00 | 0.03 | 0.00 | 8 | 1016.6 |
| 20260510203707 | 30 | 314 | 12.9 | 22.5 | 0.00 | 0.03 | 0.00 | 8 | 1016.6 |
| 20260510203207 | 30 | 274 | 4.8 | 16.1 | 0.00 | 0.03 | 0.00 | 8 | 1016.6 |
| 20260510202707 | 30 | 293 | 4.8 | 16.1 | 0.00 | 0.03 | 0.00 | 8 | 1016.7 |
| 20260510202207 | 30 | 180 | 1.6 | 16.1 | 0.00 | 0.03 | 0.00 | 10 | 1016.6 |
| 20260510201707 | 30 | 338 | 9.7 | 17.7 | 0.00 | 0.03 | 0.00 | 9 | 1016.8 |
| 20260510201207 | 29 | 239 | 1.6 | 17.7 | 0.00 | 0.03 | 0.00 | 9 | 1016.8 |
| 20260510200707 | 30 | 18 | 8.0 | 16.1 | 0.00 | 0.03 | 0.00 | 9 | 1016.8 |
| 20260510200207 | 30 | 309 | 3.2 | 9.7 | 0.00 | 0.03 | 0.00 | 9 | 1016.9 |
| 20260510195707 | 30 | 315 | 0.0 | 22.5 | 0.00 | 0.03 | 0.00 | 10 | 1016.9 |
| 20260510195207 | 30 | 291 | 0.0 | 22.5 | 0.00 | 0.03 | 0.00 | 10 | 1016.8 |
| 20260510194707 | 30 | 335 | 9.7 | 14.5 | 0.00 | 0.03 | 0.00 | 9 | 1016.8 |
| 20260510194207 | 29 | 218 | 1.6 | 12.9 | 0.00 | 0.03 | 0.00 | 11 | 1016.8 |
| 20260510193707 | 28 | 11 | 1.6 | 12.9 | 0.00 | 0.03 | 0.00 | 11 | 1016.9 |
| 20260510193207 | 28 | 309 | 1.6 | 16.1 | 0.00 | 0.03 | 0.00 | 12 | 1016.9 |
| 20260510192707 | 28 | 0 | 6.4 | 16.1 | 0.00 | 0.03 | 0.00 | 13 | 1017.0 |
| 20260510192207 | 28 | 336 | 6.4 | 14.5 | 0.00 | 0.03 | 0.00 | 13 | 1017.0 |
| 20260510191707 | 27 | 294 | 6.4 | 14.5 | 0.00 | 0.03 | 0.00 | 13 | 1017.0 |
| 20260510191207 | 27 | 309 | 4.8 | 14.5 | 0.00 | 0.03 | 0.00 | 13 | 1017.0 |
| 20260510190707 | 27 | 31 | 6.4 | 14.5 | 0.00 | 0.03 | 0.00 | 13 | 1016.9 |
| 20260510190207 | 28 | 79 | 6.4 | 14.5 | 0.00 | 0.03 | 0.00 | 14 | 1016.8 |
| 20260510185707 | 28 | 329 | 0.0 | 12.9 | 0.00 | 0.03 | 0.00 | 13 | 1017.0 |
| 20260510185207 | 28 | 14 | 1.6 | 19.3 | 0.00 | 0.03 | 0.00 | 13 | 1017.0 |
| 20260510184707 | 28 | 347 | 4.8 | 19.3 | 0.00 | 0.03 | 0.00 | 13 | 1017.0 |
| 20260510184207 | 28 | 31 | 8.0 | 17.7 | 0.00 | 0.03 | 0.00 | 12 | 1017.1 |
| 20260510183707 | 28 | 335 | 9.7 | 16.1 | 0.00 | 0.03 | 0.00 | 13 | 1017.0 |
| 20260510183207 | 28 | 350 | 8.0 | 14.5 | 0.00 | 0.03 | 0.00 | 12 | 1017.0 |
| 20260510182707 | 28 | 0 | 1.6 | 17.7 | 0.00 | 0.03 | 0.00 | 12 | 1017.1 |
| 20260510182207 | 28 | 308 | 8.0 | 17.7 | 0.00 | 0.03 | 0.00 | 11 | 1017.1 |
| 20260510181707 | 28 | 294 | 0.0 | 16.1 | 0.00 | 0.03 | 0.00 | 12 | 1017.0 |
| 20260510181207 | 28 | 354 | 6.4 | 16.1 | 0.00 | 0.03 | 0.00 | 12 | 1017.0 |
| 20260510180707 | 27 | 318 | 3.2 | 9.7 | 0.00 | 0.03 | 0.00 | 13 | 1017.0 |
| 20260510180207 | 27 | 329 | 0.0 | 14.5 | 0.00 | 0.03 | 0.00 | 13 | 1017.0 |
| 20260510175707 | 27 | 8 | 4.8 | 16.1 | 0.00 | 0.03 | 0.00 | 12 | 1017.1 |
| 20260510175206 | 27 | 27 | 11.3 | 16.1 | 0.00 | 0.03 | 0.00 | 13 | 1017.0 |
| 20260510174707 | 27 | 333 | 8.0 | 16.1 | 0.00 | 0.03 | 0.00 | 13 | 1017.0 |
| 20260510174207 | 27 | 359 | 9.7 | 16.1 | 0.00 | 0.03 | 0.00 | 12 | 1017.0 |
| 20260510173707 | 27 | 347 | 8.0 | 19.3 | 0.00 | 0.03 | 0.00 | 12 | 1016.9 |
| 20260510173206 | 27 | 319 | 6.4 | 19.3 | 0.00 | 0.03 | 0.00 | 12 | 1017.0 |
| 20260510172707 | 27 | 316 | 8.0 | 19.3 | 0.00 | 0.03 | 0.00 | 12 | 1016.9 |
| 20260510172206 | 28 | 311 | 4.8 | 12.9 | 0.00 | 0.03 | 0.00 | 11 | 1016.8 |
| 20260510171706 | 28 | 328 | 4.8 | 12.9 | 0.00 | 0.03 | 0.00 | 12 | 1016.8 |
| 20260510171206 | 28 | 266 | 0.0 | 16.1 | 0.00 | 0.03 | 0.00 | 13 | 1016.7 |
| 20260510170706 | 28 | 318 | 3.2 | 16.1 | 0.00 | 0.03 | 0.00 | 13 | 1016.6 |
| 20260510170206 | 28 | 31 | 0.0 | 17.7 | 0.00 | 0.03 | 0.00 | 12 | 1016.6 |
| 20260510165706 | 27 | 345 | 14.5 | 17.7 | 0.00 | 0.03 | 0.00 | 13 | 1016.6 |
| 20260510165206 | 28 | 3 | 0.0 | 16.1 | 0.00 | 0.03 | 0.00 | 14 | 1016.7 |
| 20260510164706 | 27 | 31 | 11.3 | 16.1 | 0.00 | 0.03 | 0.00 | 14 | 1016.7 |
| 20260510164206 | 27 | 34 | 8.0 | 19.3 | 0.00 | 0.03 | 0.00 | 13 | 1016.6 |
| 20260510163706 | 27 | 63 | 0.0 | 19.3 | 0.00 | 0.03 | 0.00 | 14 | 1016.6 |
| 20260510163206 | 26 | 333 | 6.4 | 27.4 | 0.00 | 0.03 | 0.00 | 15 | 1016.4 |
| 20260510162706 | 26 | 8 | 9.7 | 27.4 | 0.00 | 0.03 | 0.00 | 14 | 1016.4 |
| 20260510162206 | 27 | 1 | 12.9 | 24.1 | 0.00 | 0.03 | 0.00 | 15 | 1016.3 |
| 20260510161706 | 27 | 347 | 12.9 | 24.1 | 0.00 | 0.03 | 0.00 | 14 | 1016.2 |
| 20260510161206 | 27 | 357 | 11.3 | 24.1 | 0.00 | 0.03 | 0.00 | 15 | 1016.2 |
| 20260510160706 | 26 | 1 | 16.1 | 24.1 | 0.00 | 0.03 | 0.00 | 14 | 1016.1 |
| 20260510160206 | 27 | 55 | 19.3 | 24.1 | 0.00 | 0.03 | 0.00 | 14 | 1016.0 |
| 20260510155706 | 27 | 0 | 16.1 | 24.1 | 0.00 | 0.03 | 0.00 | 14 | 1015.9 |
| 20260510155206 | 27 | 34 | 14.5 | 24.1 | 0.00 | 0.03 | 0.00 | 14 | 1015.7 |
| 20260510154706 | 27 | 8 | 12.9 | 29.0 | 0.00 | 0.03 | 0.00 | 13 | 1015.7 |
| 20260510154206 | 27 | 30 | 17.7 | 29.0 | 0.00 | 0.03 | 0.00 | 13 | 1015.5 |
| 20260510153707 | 27 | 45 | 19.3 | 27.4 | 0.00 | 0.03 | 0.00 | 13 | 1015.5 |
| 20260510153206 | 27 | 24 | 12.9 | 25.7 | 0.00 | 0.03 | 0.00 | 13 | 1015.4 |
| 20260510152706 | 27 | 354 | 12.9 | 27.4 | 0.00 | 0.03 | 0.00 | 14 | 1015.4 |
| 20260510152206 | 27 | 20 | 14.5 | 27.4 | 0.00 | 0.03 | 0.00 | 14 | 1015.4 |
| 20260510151706 | 27 | 8 | 14.5 | 25.7 | 0.00 | 0.03 | 0.00 | 13 | 1015.4 |
| 20260510151206 | 27 | 48 | 12.9 | 24.1 | 0.00 | 0.03 | 0.00 | 13 | 1015.4 |
| 20260510150706 | 27 | 8 | 16.1 | 20.9 | 0.00 | 0.03 | 0.00 | 12 | 1015.3 |
| 20260510150206 | 27 | 353 | 9.7 | 24.1 | 0.00 | 0.03 | 0.00 | 12 | 1015.3 |
| 20260510145706 | 27 | 6 | 14.5 | 27.4 | 0.00 | 0.03 | 0.00 | 12 | 1015.3 |
| 20260510145206 | 27 | 343 | 9.7 | 27.4 | 0.00 | 0.03 | 0.00 | 13 | 1015.3 |
| 20260510144706 | 26 | 349 | 14.5 | 29.0 | 0.00 | 0.03 | 0.00 | 13 | 1015.2 |
| 20260510144206 | 26 | 15 | 19.3 | 29.0 | 0.00 | 0.03 | 0.00 | 13 | 1015.2 |
| 20260510143706 | 25 | 356 | 8.0 | 16.1 | 0.00 | 0.03 | 0.00 | 15 | 1014.9 |
| 20260510143206 | 23 | 276 | 0.0 | 11.3 | 0.00 | 0.03 | 0.00 | 19 | 1014.8 |
| 20260510142706 | 23 | 276 | 0.0 | 11.3 | 0.00 | 0.03 | 0.00 | 21 | 1014.8 |
| 20260510142206 | 22 | 249 | 1.6 | 8.0 | 0.00 | 0.03 | 0.00 | 21 | 1014.7 |
| 20260510141706 | 22 | 13 | 0.0 | 0.0 | 0.00 | 0.03 | 0.00 | 22 | 1014.5 |
| 20260510141206 | 22 | 13 | 0.0 | 0.0 | 0.00 | 0.03 | 0.00 | 22 | 1014.6 |
| 20260510140706 | 22 | 13 | 0.0 | 0.0 | 0.00 | 0.03 | 0.00 | 22 | 1014.6 |
| 20260510140206 | 22 | 13 | 0.0 | 0.0 | 0.00 | 0.03 | 0.00 | 21 | 1014.5 |
| 20260510135706 | 21 | 13 | 0.0 | 0.0 | 0.00 | 0.03 | 0.00 | 20 | 1014.6 |
| 20260510135206 | 21 | 13 | 0.0 | 9.7 | 0.00 | 0.03 | 0.00 | 21 | 1014.6 |
| 20260510134706 | 21 | 13 | 0.0 | 11.3 | 0.00 | 0.03 | 0.00 | 22 | 1014.7 |
| 20260510134206 | 21 | 357 | 6.4 | 11.3 | 0.00 | 0.03 | 0.00 | 23 | 1014.8 |
| 20260510133706 | 21 | 346 | 6.4 | 11.3 | 0.00 | 0.03 | 0.00 | 23 | 1014.6 |
| 20260510133206 | 21 | 27 | 8.0 | 11.3 | 0.00 | 0.03 | 0.00 | 22 | 1014.5 |
| 20260510132706 | 21 | 354 | 3.2 | 8.0 | 0.00 | 0.03 | 0.00 | 23 | 1014.8 |
| 20260510132206 | 20 | 166 | 0.0 | 11.3 | 0.00 | 0.03 | 0.00 | 23 | 1015.2 |
| 20260510131706 | 19 | 208 | 8.0 | 11.3 | 0.00 | 0.03 | 0.00 | 24 | 1015.2 |
| 20260510131206 | 18 | 58 | 0.0 | 0.0 | 0.00 | 0.03 | 0.00 | 27 | 1015.0 |
| 20260510130706 | 18 | 58 | 0.0 | 6.4 | 0.00 | 0.03 | 0.00 | 28 | 1014.8 |
| 20260510130206 | 17 | 58 | 0.0 | 8.0 | 0.00 | 0.03 | 0.00 | 28 | 1014.6 |
| 20260510125706 | 17 | 51 | 3.2 | 8.0 | 0.00 | 0.03 | 0.00 | 27 | 1014.5 |
| 20260510125206 | 17 | 96 | 0.0 | 6.4 | 0.00 | 0.03 | 0.00 | 28 | 1014.3 |
| 20260510124706 | 17 | 63 | 0.0 | 6.4 | 0.00 | 0.03 | 0.00 | 30 | 1014.6 |
| 20260510124206 | 17 | 63 | 0.0 | 6.4 | 0.00 | 0.03 | 0.00 | 29 | 1014.5 |
| 20260510123706 | 17 | 62 | 0.0 | 4.8 | 0.00 | 0.03 | 0.00 | 28 | 1014.5 |
| 20260510123206 | 17 | 314 | 0.0 | 0.0 | 0.00 | 0.03 | 0.00 | 27 | 1014.3 |
| 20260510122706 | 17 | 314 | 0.0 | 0.0 | 0.00 | 0.03 | 0.00 | 27 | 1014.3 |
| 20260510122206 | 17 | 314 | 0.0 | 0.0 | 0.00 | 0.03 | 0.00 | 27 | 1014.2 |
| 20260510121706 | 17 | 314 | 0.0 | 0.0 | 0.00 | 0.03 | 0.00 | 27 | 1014.1 |
| 20260510121206 | 17 | 314 | 0.0 | 0.0 | 0.00 | 0.03 | 0.00 | 27 | 1014.0 |
| 20260510120706 | 18 | 314 | 0.0 | 1.6 | 0.00 | 0.03 | 0.00 | 25 | 1013.9 |
| 20260510120206 | 19 | 314 | 0.0 | 1.6 | 0.00 | 0.03 | 0.00 | 24 | 1013.8 |
| 20260510115706 | 20 | 314 | 0.0 | 0.0 | 0.00 | 0.03 | 0.00 | 22 | 1013.8 |
| 20260510115206 | 20 | 314 | 0.0 | 0.0 | 0.00 | 0.03 | 0.00 | 19 | 1013.9 |
| 20260510114706 | 21 | 314 | 0.0 | 0.0 | 0.00 | 0.03 | 0.00 | 19 | 1013.8 |
| 20260510114206 | 21 | 314 | 0.0 | 0.0 | 0.00 | 0.03 | 0.00 | 19 | 1013.6 |
| 20260510113706 | 22 | 314 | 0.0 | 0.0 | 0.00 | 0.03 | 0.00 | 18 | 1013.6 |
| 20260510113206 | 22 | 314 | 0.0 | 0.0 | 0.00 | 0.03 | 0.00 | 16 | 1013.6 |
| 20260510112706 | 22 | 314 | 0.0 | 0.0 | 0.00 | 0.03 | 0.00 | 16 | 1013.6 |
| 20260510112206 | 22 | 314 | 0.0 | 0.0 | 0.00 | 0.03 | 0.00 | 15 | 1013.5 |
| 20260510111706 | 22 | 314 | 0.0 | 0.0 | 0.00 | 0.03 | 0.00 | 15 | 1013.5 |
| 20260510111206 | 23 | 314 | 0.0 | 6.4 | 0.00 | 0.03 | 0.00 | 15 | 1013.5 |
| 20260510110706 | 23 | 314 | 0.0 | 8.0 | 0.00 | 0.03 | 0.00 | 14 | 1013.4 |
| 20260510110206 | 23 | 21 | 0.0 | 17.7 | 0.00 | 0.03 | 0.00 | 14 | 1013.3 |
| 20260510105706 | 23 | 7 | 8.0 | 17.7 | 0.00 | 0.03 | 0.00 | 14 | 1013.2 |
| 20260510105206 | 23 | 4 | 9.7 | 17.7 | 0.00 | 0.03 | 0.00 | 14 | 1013.2 |
| 20260510104706 | 23 | 25 | 4.8 | 11.3 | 0.00 | 0.03 | 0.00 | 15 | 1013.1 |
| 20260510104206 | 23 | 352 | 0.0 | 16.1 | 0.00 | 0.03 | 0.00 | 14 | 1012.9 |
| 20260510103706 | 23 | 6 | 8.0 | 16.1 | 0.00 | 0.03 | 0.00 | 14 | 1012.8 |
| 20260510103206 | 22 | 357 | 3.2 | 12.9 | 0.00 | 0.03 | 0.00 | 16 | 1012.6 |
| 20260510102706 | 22 | 31 | 0.0 | 11.3 | 0.00 | 0.03 | 0.00 | 16 | 1012.5 |
| 20260510102206 | 22 | 38 | 6.4 | 11.3 | 0.00 | 0.03 | 0.00 | 17 | 1012.4 |
| 20260510101706 | 22 | 45 | 6.4 | 11.3 | 0.00 | 0.03 | 0.00 | 17 | 1012.4 |
| 20260510101206 | 22 | 30 | 4.8 | 9.7 | 0.00 | 0.03 | 0.00 | 17 | 1012.4 |
| 20260510100706 | 21 | 8 | 0.0 | 12.9 | 0.00 | 0.03 | 0.00 | 18 | 1012.2 |
| 20260510100206 | 20 | 39 | 8.0 | 12.9 | 0.00 | 0.03 | 0.00 | 21 | 1012.1 |
| 20260510095706 | 18 | 45 | 0.0 | 8.0 | 0.00 | 0.03 | 0.00 | 24 | 1012.0 |
| 20260510095206 | 18 | 80 | 4.8 | 6.4 | 0.00 | 0.03 | 0.00 | 24 | 1012.0 |
| 20260510094706 | 18 | 48 | 0.0 | 4.8 | 0.00 | 0.03 | 0.00 | 24 | 1012.1 |
| 20260510094206 | 18 | 70 | 0.0 | 4.8 | 0.00 | 0.03 | 0.00 | 24 | 1012.1 |
| 20260510093706 | 18 | 32 | 0.0 | 4.8 | 0.00 | 0.03 | 0.00 | 24 | 1012.1 |
| 20260510093206 | 18 | 32 | 0.0 | 4.8 | 0.00 | 0.03 | 0.00 | 23 | 1012.0 |
| 20260510092706 | 19 | 340 | 0.0 | 0.0 | 0.00 | 0.03 | 0.00 | 21 | 1011.9 |
| 20260510092206 | 20 | 340 | 0.0 | 0.0 | 0.00 | 0.03 | 0.00 | 21 | 1011.8 |
| 20260510091706 | 20 | 340 | 0.0 | 0.0 | 0.00 | 0.03 | 0.00 | 20 | 1011.8 |
| 20260510091206 | 20 | 340 | 0.0 | 8.0 | 0.00 | 0.03 | 0.00 | 19 | 1011.9 |
| 20260510090706 | 20 | 340 | 0.0 | 8.0 | 0.00 | 0.03 | 0.00 | 19 | 1011.8 |
| 20260510090206 | 20 | 6 | 4.8 | 6.4 | 0.00 | 0.03 | 0.00 | 19 | 1011.8 |
| 20260510085706 | 20 | 359 | 0.0 | 9.7 | 0.00 | 0.03 | 0.00 | 20 | 1011.8 |
| 20260510085206 | 20 | 354 | 6.4 | 9.7 | 0.00 | 0.03 | 0.00 | 20 | 1011.9 |
| 20260510084706 | 20 | 25 | 0.0 | 16.1 | 0.00 | 0.03 | 0.00 | 19 | 1011.8 |
| 20260510084206 | 20 | 328 | 4.8 | 16.1 | 0.00 | 0.03 | 0.00 | 19 | 1011.8 |
| 20260510083706 | 20 | 347 | 6.4 | 9.7 | 0.00 | 0.03 | 0.00 | 20 | 1011.7 |
| 20260510083206 | 20 | 194 | 0.0 | 19.3 | 0.00 | 0.03 | 0.00 | 19 | 1011.1 |
| 20260510082706 | 21 | 287 | 0.0 | 19.3 | 0.00 | 0.03 | 0.00 | 18 | 1011.3 |
| 20260510082206 | 21 | 319 | 4.8 | 12.9 | 0.00 | 0.03 | 0.00 | 17 | 1011.1 |
| 20260510081706 | 21 | 117 | 0.0 | 0.0 | 0.00 | 0.03 | 0.00 | 16 | 1010.7 |
| 20260510081206 | 22 | 117 | 0.0 | 0.0 | 0.00 | 0.03 | 0.00 | 15 | 1010.7 |
| 20260510080706 | 22 | 117 | 0.0 | 0.0 | 0.00 | 0.03 | 0.00 | 15 | 1010.8 |
| 20260510080206 | 23 | 117 | 0.0 | 11.3 | 0.00 | 0.03 | 0.00 | 14 | 1010.7 |
| 20260510075705 | 23 | 117 | 0.0 | 16.1 | 0.00 | 0.03 | 0.00 | 14 | 1010.7 |
| 20260510075205 | 22 | 131 | 8.0 | 16.1 | 0.00 | 0.03 | 0.00 | 14 | 1010.8 |
| 20260510074705 | 22 | 156 | 9.7 | 14.5 | 0.00 | 0.03 | 0.00 | 14 | 1010.8 |
| 20260510074205 | 23 | 197 | 9.7 | 14.5 | 0.00 | 0.03 | 0.00 | 13 | 1011.1 |
| 20260510073705 | 24 | 118 | 0.0 | 12.9 | 0.00 | 0.03 | 0.00 | 12 | 1011.1 |
| 20260510073205 | 25 | 149 | 0.0 | 16.1 | 0.00 | 0.03 | 0.00 | 12 | 1011.2 |
| 20260510072705 | 24 | 110 | 4.8 | 17.7 | 0.00 | 0.03 | 0.00 | 11 | 1011.2 |
| 20260510072205 | 23 | 132 | 11.3 | 17.7 | 0.00 | 0.03 | 0.00 | 12 | 1011.2 |
| 20260510071705 | 23 | 145 | 8.0 | 14.5 | 0.00 | 0.03 | 0.00 | 13 | 1011.3 |
| 20260510071205 | 22 | 191 | 0.0 | 0.0 | 0.00 | 0.03 | 0.00 | 14 | 1011.4 |
| 20260510070705 | 22 | 39 | 0.0 | 0.0 | 0.00 | 0.03 | 0.00 | 14 | 1011.2 |
| 20260510070205 | 22 | 39 | 0.0 | 0.0 | 0.00 | 0.03 | 0.00 | 15 | 1011.2 |
| 20260510065705 | 21 | 39 | 0.0 | 0.0 | 0.00 | 0.03 | 0.00 | 16 | 1011.4 |
| 20260510065205 | 21 | 39 | 0.0 | 0.0 | 0.00 | 0.03 | 0.00 | 16 | 1011.4 |
| 20260510064705 | 21 | 39 | 0.0 | 3.2 | 0.00 | 0.03 | 0.00 | 17 | 1011.3 |
| 20260510064205 | 22 | 39 | 0.0 | 3.2 | 0.00 | 0.03 | 0.00 | 17 | 1011.4 |
| 20260510063705 | 22 | 191 | 0.0 | 0.0 | 0.00 | 0.03 | 0.00 | 15 | 1011.5 |
| 20260510063205 | 22 | 191 | 0.0 | 0.0 | 0.00 | 0.03 | 0.00 | 14 | 1011.7 |
| 20260510062705 | 23 | 191 | 0.0 | 0.0 | 0.00 | 0.03 | 0.00 | 14 | 1011.5 |
| 20260510062205 | 23 | 191 | 0.0 | 0.0 | 0.00 | 0.03 | 0.00 | 14 | 1011.5 |
| 20260510061705 | 24 | 191 | 0.0 | 0.0 | 0.00 | 0.03 | 0.00 | 13 | 1011.5 |
| 20260510061205 | 25 | 191 | 0.0 | 0.0 | 0.00 | 0.03 | 0.00 | 12 | 1011.7 |
| 20260510060705 | 25 | 191 | 0.0 | 0.0 | 0.00 | 0.03 | 0.00 | 11 | 1011.5 |
| 20260510060205 | 25 | 191 | 0.0 | 0.0 | 0.00 | 0.03 | 0.00 | 11 | 1011.4 |
| 20260510055705 | 25 | 191 | 0.0 | 0.0 | 0.00 | 0.00 | 0.03 | 11 | 1011.4 |
| 20260510055205 | 26 | 191 | 0.0 | 0.0 | 0.00 | 0.00 | 0.03 | 10 | 1011.4 |
| 20260510054705 | 26 | 191 | 0.0 | 0.0 | 0.00 | 0.00 | 0.03 | 10 | 1011.3 |
| 20260510054205 | 26 | 191 | 0.0 | 11.3 | 0.00 | 0.00 | 0.03 | 9 | 1011.3 |
| 20260510053705 | 27 | 191 | 0.0 | 12.9 | 0.00 | 0.00 | 0.03 | 8 | 1011.2 |
| 20260510053205 | 27 | 186 | 6.4 | 12.9 | 0.00 | 0.00 | 0.03 | 8 | 1011.2 |
| 20260510052705 | 27 | 198 | 9.7 | 16.1 | 0.00 | 0.00 | 0.03 | 8 | 1011.2 |
| 20260510052205 | 27 | 195 | 8.0 | 20.9 | 0.00 | 0.00 | 0.03 | 8 | 1011.1 |
| 20260510051705 | 27 | 186 | 9.7 | 24.1 | 0.00 | 0.00 | 0.03 | 8 | 1011.1 |
| 20260510051205 | 27 | 208 | 11.3 | 24.1 | 0.00 | 0.00 | 0.03 | 8 | 1011.2 |
| 20260510050705 | 27 | 184 | 11.3 | 19.3 | 0.00 | 0.00 | 0.03 | 8 | 1011.2 |
| 20260510050205 | 27 | 174 | 12.9 | 24.1 | 0.00 | 0.00 | 0.03 | 7 | 1011.2 |
| 20260510045705 | 27 | 188 | 12.9 | 24.1 | 0.00 | 0.00 | 0.03 | 8 | 1011.2 |
| 20260510045205 | 27 | 212 | 12.9 | 19.3 | 0.00 | 0.00 | 0.03 | 8 | 1011.2 |
| 20260510044705 | 27 | 162 | 14.5 | 19.3 | 0.00 | 0.00 | 0.03 | 8 | 1011.2 |
| 20260510044205 | 27 | 179 | 12.9 | 19.3 | 0.00 | 0.00 | 0.03 | 8 | 1011.3 |
| 20260510043705 | 26 | 176 | 6.4 | 14.5 | 0.00 | 0.00 | 0.03 | 9 | 1011.3 |
| 20260510043205 | 26 | 183 | 0.0 | 9.7 | 0.00 | 0.00 | 0.03 | 9 | 1011.3 |
| 20260510042705 | 27 | 169 | 6.4 | 9.7 | 0.00 | 0.00 | 0.03 | 9 | 1011.3 |
| 20260510042206 | 27 | 176 | 0.0 | 11.3 | 0.00 | 0.00 | 0.03 | 9 | 1011.3 |
| 20260510041705 | 27 | 121 | 6.4 | 11.3 | 0.00 | 0.00 | 0.03 | 8 | 1011.3 |
| 20260510041205 | 27 | 142 | 1.6 | 11.3 | 0.00 | 0.00 | 0.03 | 8 | 1011.3 |
| 20260510040705 | 27 | 113 | 3.2 | 11.3 | 0.00 | 0.00 | 0.03 | 9 | 1011.2 |
| 20260510040205 | 27 | 128 | 3.2 | 11.3 | 0.00 | 0.00 | 0.03 | 9 | 1011.4 |
| 20260510035705 | 27 | 162 | 8.0 | 11.3 | 0.00 | 0.00 | 0.03 | 9 | 1011.4 |
| 20260510035205 | 27 | 134 | 0.0 | 9.7 | 0.00 | 0.00 | 0.03 | 9 | 1011.2 |
| 20260510034705 | 27 | 132 | 0.0 | 16.1 | 0.00 | 0.00 | 0.03 | 8 | 1011.2 |
| 20260510034205 | 27 | 156 | 3.2 | 16.1 | 0.00 | 0.00 | 0.03 | 8 | 1011.1 |
| 20260510033705 | 27 | 115 | 1.6 | 14.5 | 0.00 | 0.00 | 0.03 | 9 | 1011.1 |
| 20260510033205 | 27 | 162 | 6.4 | 14.5 | 0.00 | 0.00 | 0.03 | 9 | 1011.1 |
| 20260510032705 | 27 | 121 | 3.2 | 11.3 | 0.00 | 0.00 | 0.03 | 9 | 1011.0 |
| 20260510032205 | 27 | 145 | 4.8 | 16.1 | 0.00 | 0.00 | 0.03 | 9 | 1011.0 |
| 20260510031705 | 27 | 173 | 11.3 | 16.1 | 0.00 | 0.00 | 0.03 | 9 | 1011.0 |
| 20260510031205 | 27 | 156 | 6.4 | 11.3 | 0.00 | 0.00 | 0.03 | 9 | 1011.0 |
| 20260510030705 | 27 | 186 | 0.0 | 11.3 | 0.00 | 0.00 | 0.03 | 8 | 1010.8 |
| 20260510030205 | 27 | 118 | 1.6 | 11.3 | 0.00 | 0.00 | 0.03 | 9 | 1011.0 |
| 20260510025705 | 27 | 180 | 4.8 | 11.3 | 0.00 | 0.00 | 0.03 | 9 | 1010.8 |
| 20260510025205 | 27 | 160 | 0.0 | 12.9 | 0.00 | 0.00 | 0.03 | 9 | 1010.8 |
| 20260510024705 | 27 | 120 | 8.0 | 12.9 | 0.00 | 0.00 | 0.03 | 9 | 1010.7 |
| 20260510024205 | 27 | 128 | 8.0 | 11.3 | 0.00 | 0.00 | 0.03 | 9 | 1010.7 |
| 20260510023705 | 27 | 125 | 0.0 | 8.0 | 0.00 | 0.00 | 0.03 | 9 | 1010.6 |
| 20260510023205 | 27 | 91 | 0.0 | 8.0 | 0.00 | 0.00 | 0.03 | 9 | 1010.6 |
| 20260510022705 | 27 | 91 | 3.2 | 8.0 | 0.00 | 0.00 | 0.03 | 9 | 1010.5 |
| 20260510022205 | 27 | 240 | 0.0 | 0.0 | 0.00 | 0.00 | 0.03 | 9 | 1010.4 |
| 20260510021705 | 27 | 240 | 0.0 | 0.0 | 0.00 | 0.00 | 0.03 | 9 | 1010.4 |
| 20260510021205 | 27 | 240 | 0.0 | 0.0 | 0.00 | 0.00 | 0.03 | 10 | 1010.4 |
| 20260510020705 | 27 | 240 | 0.0 | 0.0 | 0.00 | 0.00 | 0.03 | 10 | 1010.4 |
| 20260510020205 | 27 | 240 | 0.0 | 0.0 | 0.00 | 0.00 | 0.03 | 9 | 1010.4 |
| 20260510015705 | 28 | 240 | 0.0 | 0.0 | 0.00 | 0.00 | 0.03 | 9 | 1010.4 |
| 20260510015205 | 28 | 240 | 0.0 | 0.0 | 0.00 | 0.00 | 0.03 | 9 | 1010.3 |
| 20260510014705 | 28 | 240 | 0.0 | 0.0 | 0.00 | 0.00 | 0.03 | 9 | 1010.3 |
| 20260510014205 | 28 | 240 | 0.0 | 0.0 | 0.00 | 0.00 | 0.03 | 8 | 1010.3 |
| 20260510013705 | 29 | 240 | 0.0 | 12.9 | 0.00 | 0.00 | 0.03 | 8 | 1010.3 |
| 20260510013205 | 29 | 240 | 0.0 | 12.9 | 0.00 | 0.00 | 0.03 | 7 | 1010.1 |
| 20260510012705 | 30 | 193 | 6.4 | 12.9 | 0.00 | 0.00 | 0.03 | 7 | 1010.1 |
| 20260510012205 | 30 | 170 | 1.6 | 12.9 | 0.00 | 0.00 | 0.03 | 7 | 1010.1 |
| 20260510011705 | 30 | 179 | 0.0 | 14.5 | 0.00 | 0.00 | 0.03 | 7 | 1010.1 |
| 20260510011205 | 30 | 186 | 9.7 | 16.1 | 0.00 | 0.00 | 0.03 | 7 | 1010.1 |
| 20260510010705 | 30 | 188 | 11.3 | 17.7 | 0.00 | 0.00 | 0.03 | 7 | 1010.1 |
| 20260510010205 | 30 | 183 | 11.3 | 20.9 | 0.00 | 0.00 | 0.03 | 7 | 1010.1 |
| 20260510005705 | 30 | 212 | 9.7 | 20.9 | 0.00 | 0.00 | 0.03 | 7 | 1010.0 |
| 20260510005205 | 30 | 226 | 6.4 | 12.9 | 0.00 | 0.00 | 0.03 | 7 | 1010.1 |
| 20260510004705 | 31 | 231 | 0.0 | 3.2 | 0.00 | 0.00 | 0.03 | 7 | 1010.1 |
| 20260510004205 | 31 | 231 | 0.0 | 11.3 | 0.00 | 0.00 | 0.03 | 7 | 1010.1 |
| 20260510003705 | 31 | 225 | 0.0 | 12.9 | 0.00 | 0.00 | 0.03 | 7 | 1010.3 |
| 20260510003205 | 31 | 217 | 8.0 | 17.7 | 0.00 | 0.00 | 0.03 | 6 | 1010.3 |
| 20260510002705 | 31 | 207 | 11.3 | 17.7 | 0.00 | 0.00 | 0.03 | 6 | 1010.3 |
| 20260510002205 | 31 | 184 | 9.7 | 14.5 | 0.00 | 0.00 | 0.03 | 6 | 1010.3 |
| 20260510001705 | 31 | 203 | 0.0 | 11.3 | 0.00 | 0.00 | 0.03 | 7 | 1010.3 |
| 20260510001205 | 31 | 233 | 0.0 | 11.3 | 0.00 | 0.00 | 0.03 | 6 | 1010.3 |
| 20260510000705 | 31 | 224 | 3.2 | 14.5 | 0.00 | 0.00 | 0.03 | 6 | 1010.4 |
| 20260510000205 | 31 | 263 | 0.0 | 19.3 | 0.00 | 0.00 | 0.03 | 6 | 1010.4 |
| 20260509235705 | 31 | 225 | 11.3 | 19.3 | 0.00 | 0.00 | 0.03 | 6 | 1010.4 |
| 20260509235205 | 31 | 190 | 8.0 | 17.7 | 0.00 | 0.00 | 0.03 | 6 | 1010.4 |
| 20260509234705 | 31 | 174 | 8.0 | 19.3 | 0.00 | 0.00 | 0.03 | 6 | 1010.5 |
| 20260509234205 | 31 | 180 | 8.0 | 19.3 | 0.00 | 0.00 | 0.03 | 6 | 1010.5 |
| 20260509233705 | 31 | 217 | 0.0 | 16.1 | 0.00 | 0.00 | 0.03 | 6 | 1010.5 |
| 20260509233205 | 31 | 212 | 0.0 | 20.9 | 0.00 | 0.00 | 0.03 | 7 | 1010.6 |
| 20260509232705 | 32 | 195 | 8.0 | 20.9 | 0.00 | 0.00 | 0.03 | 6 | 1010.7 |
| 20260509232205 | 32 | 291 | 3.2 | 17.7 | 0.00 | 0.00 | 0.03 | 6 | 1010.6 |
| 20260509231705 | 32 | 204 | 6.4 | 12.9 | 0.00 | 0.00 | 0.03 | 6 | 1010.6 |
| 20260509231205 | 32 | 311 | 1.6 | 11.3 | 0.00 | 0.00 | 0.03 | 7 | 1010.6 |
| 20260509230705 | 32 | 170 | 8.0 | 17.7 | 0.00 | 0.00 | 0.03 | 6 | 1010.7 |
| 20260509230205 | 32 | 145 | 8.0 | 17.7 | 0.00 | 0.00 | 0.03 | 6 | 1010.7 |
| 20260509225705 | 32 | 233 | 0.0 | 14.5 | 0.00 | 0.00 | 0.03 | 7 | 1010.8 |
| 20260509225204 | 32 | 214 | 8.0 | 14.5 | 0.00 | 0.00 | 0.03 | 6 | 1010.8 |
| 20260509224704 | 32 | 195 | 6.4 | 14.5 | 0.00 | 0.00 | 0.03 | 6 | 1010.8 |
| 20260509224205 | 32 | 197 | 0.0 | 12.9 | 0.00 | 0.00 | 0.03 | 6 | 1011.0 |
| 20260509223704 | 32 | 200 | 4.8 | 12.9 | 0.00 | 0.00 | 0.03 | 6 | 1011.0 |
| 20260509223204 | 32 | 277 | 0.0 | 12.9 | 0.00 | 0.00 | 0.03 | 6 | 1011.0 |
| 20260509222704 | 32 | 250 | 0.0 | 12.9 | 0.00 | 0.00 | 0.03 | 7 | 1011.1 |
| 20260509222204 | 32 | 287 | 1.6 | 11.3 | 0.00 | 0.00 | 0.03 | 7 | 1011.2 |
| 20260509221704 | 32 | 233 | 0.0 | 12.9 | 0.00 | 0.00 | 0.03 | 7 | 1011.3 |
| 20260509221204 | 32 | 8 | 6.4 | 12.9 | 0.00 | 0.00 | 0.03 | 6 | 1011.3 |
| 20260509220704 | 32 | 340 | 0.0 | 12.9 | 0.00 | 0.00 | 0.03 | 6 | 1011.4 |
| 20260509220204 | 31 | 38 | 0.0 | 12.9 | 0.00 | 0.00 | 0.03 | 7 | 1011.5 |
| 20260509215704 | 31 | 167 | 4.8 | 9.7 | 0.00 | 0.00 | 0.03 | 7 | 1011.8 |
| 20260509215204 | 31 | 23 | 3.2 | 17.7 | 0.00 | 0.00 | 0.03 | 6 | 1011.8 |
| 20260509214704 | 31 | 188 | 6.4 | 17.7 | 0.00 | 0.00 | 0.03 | 6 | 1011.9 |
| 20260509214204 | 31 | 153 | 8.0 | 16.1 | 0.00 | 0.00 | 0.03 | 7 | 1011.9 |
| 20260509213704 | 31 | 37 | 1.6 | 20.9 | 0.00 | 0.00 | 0.03 | 6 | 1012.0 |
| 20260509213204 | 32 | 197 | 8.0 | 20.9 | 0.00 | 0.00 | 0.03 | 6 | 1012.1 |
| 20260509212704 | 32 | 210 | 0.0 | 17.7 | 0.00 | 0.00 | 0.03 | 7 | 1012.1 |
| 20260509212204 | 32 | 190 | 1.6 | 14.5 | 0.00 | 0.00 | 0.03 | 7 | 1012.2 |
| 20260509211704 | 31 | 162 | 0.0 | 16.1 | 0.00 | 0.00 | 0.03 | 4 | 1012.5 |
| 20260509211204 | 31 | 211 | 4.8 | 16.1 | 0.00 | 0.00 | 0.03 | 7 | 1012.6 |
| 20260509210704 | 32 | 211 | 3.2 | 14.5 | 0.00 | 0.00 | 0.03 | 7 | 1012.7 |
| 20260509210204 | 32 | 134 | 0.0 | 11.3 | 0.00 | 0.00 | 0.03 | 7 | 1012.7 |
| 20260509205704 | 32 | 228 | 1.6 | 12.9 | 0.00 | 0.00 | 0.03 | 7 | 1012.8 |
| 20260509205204 | 32 | 270 | 6.4 | 12.9 | 0.00 | 0.00 | 0.03 | 6 | 1012.9 |
| 20260509204704 | 32 | 273 | 1.6 | 11.3 | 0.00 | 0.00 | 0.03 | 7 | 1012.9 |